Overview Statistics Trail Chart Weather Telemetry Raw packets
 

This is the latest recevied weather packets stored in our database for station/object KD0MAC. If no packets are shown the sender has not sent any weather packets the latest 10 day(s).

<< 37 38 39 40 41 42 43 >>
Time Temp. Humidity Pressure Rain* Wind** Luminosity Snow
1788478125 38.33° C 20% 1009.1 hPa 0 mm - 153 W/m² -
1788477876 38.33° C 20% 1009.1 hPa 0 mm - 164 W/m² -
1788477824 38.33° C 20% 1009.1 hPa 0 mm - 164 W/m² -
1788477524 38.33° C 22% 1009.1 hPa 0 mm - 177 W/m² -
1788477225 38.33° C 24% 1009.1 hPa 0 mm - 188 W/m² -
1788476978 38.33° C 22% 1009.1 hPa 0 mm - 189 W/m² -
1788476925 38.33° C 22% 1009.1 hPa 0 mm - 189 W/m² -
1788476624 38.89° C 20% 1009.1 hPa 0 mm - 200 W/m² -
1788476375 38.33° C 22% 1009.1 hPa 0 mm - 214 W/m² -
1788476076 38.89° C 21% 1009.1 hPa 0 mm - 229 W/m² -
1788475776 38.89° C 22% 1009.1 hPa 0 mm - 241 W/m² -
1788475475 38.89° C 20% 1009.1 hPa 0 mm - 250 W/m² -
1788475425 38.89° C 20% 1009.1 hPa 0 mm - 250 W/m² -
1788475175 38.89° C 20% 1009.1 hPa 0 mm - 266 W/m² -
1788474875 38.89° C 20% 1009.1 hPa 0 mm - 280 W/m² -
1788474825 38.89° C 20% 1009.1 hPa 0 mm - 280 W/m² -
1788474524 39.44° C 22% 1009.1 hPa 0 mm - 294 W/m² -
1788474275 38.89° C 21% 1009.1 hPa 0 mm - 304 W/m² -
1788473975 38.89° C 20% 1009.1 hPa 0 mm - 316 W/m² -
1788473677 38.89° C 21% 1009.1 hPa 0 mm - 328 W/m² -
1788473625 38.89° C 21% 1009.1 hPa 0 mm - 328 W/m² -
1788473324 39.44° C 21% 1009.1 hPa 0 mm - 339 W/m² -
1788473024 39.44° C 18% 1009.1 hPa 0 mm - 351 W/m² -
1788472725 38.89° C 21% 1009.1 hPa 0 mm - 363 W/m² -
1788472476 38.89° C 21% 1009.1 hPa 0 mm - 354 W/m² -

* Rain latest hour (hover to see other rain measurements)
** Current wind speed in m/s (hover to see current wind gust speed)